Погода в Грасмире

Великобритания     54°27′39″N   3°01′23″W
темп.,
°C
ветер,
м/с
пор.,
м/с
влажн.,
%
обл.,
%
осадки,
мм/ч
давл.,
гПа
погр.,
м
24 июля, сб
сб2401:00+13в119395 0.0 101512
04:00+11всв119587 0.0 101412
07:00+12всв129278 0.0 101385
10:00+16в227175 0.0 1013496
13:00+19всв2262100 0.0 1012818
16:00+19в226295 0.0 1011878
19:00+18вюв2271100 0.0 1011550
22:00+13в1189100 0.0 101211
25 июля, вс
вс2501:00+11св1192100 0.0 101211
04:00+10св229391 0.0 101114
07:00+11всв118641 0.0 101160
10:00+16св11690 0.0 1011563
13:00+19св22620 0.0 10111038
16:00+20ссв226019 0.0 10101271
19:00+19ссв22699 0.0 1010905
22:00+14ссз22870 0.0 101111
26 июля, пн
пн2601:00+12ссв11880 0.0 101110
04:00+12сз00885 0.0 101110
07:00+14зюз00855 0.0 101143
10:00+18юз117496 0.0 1011687
13:00+20зюз1163100 0.1 10101195
16:00+20з2273100 4.5 1009633
19:00+18з227671 6.3 1009512
22:00+12зюз1189100 0.0 101011
27 июля, вт
вт2701:00+12зюз1189100 0.0 101011
04:00+11ююз1191100 0.0 100911
07:00+13юз119394 0.0 100983
10:00+17ю118050 0.0 1008527
13:00+18зюз2271100 0.8 1008943
16:00+18з3371100 0.8 1008821
19:00+14з228670 2.0 1008167
22:00+11зюз119592 0.1 100812
28 июля, ср
ср2801:00+10ююз229651 0.1 100840
04:00+9ююз339821 0.0 100760
07:00+11ююз239612 0.0 1007124
10:00+14юз697929 0.6 10061025
13:00+15юз7107335 1.0 10061250
16:00+15юз8116912 0.6 10051288
19:00+12юз4983100 1.2 1004981
22:00+10юз614885 0.9 1004678